When you browse on this site, cookies collect data to enhance your experience and personalize the content and advertising you see.
Visit our Privacy Policy to learn more. By continuing to use the site, you agree to this use of cookies and data.
  • în România
  • Lista ţărilor
  • Pe 7 zile
  • Temperatura apei
  • Hartă satelitară
  • Meteo pe hartă
  • Widget-uri
  • user-avatar
    Intrare

    Meteo pe oră la Arrigorriaga

    Astăzi, 19 Februarie, Marţi

    Timp Temperatura Precipitaţii Vânt Presiune Umiditate
    00:00 +10°C° 0 mm 1 m/s 744 mmHg 96%
    01:00 +10°C° 0.2 mm 1 m/s 744 mmHg 96%
    02:00 +10°C° 0.2 mm 1 m/s 744 mmHg 96%
    03:00 +10°C° 0.2 mm 1 m/s 743 mmHg 96%
    04:00 +10°C° 0.1 mm 1 m/s 743 mmHg 96%
    05:00 +9°C° 0.1 mm 1 m/s 743 mmHg 96%
    06:00 +9°C° 0.1 mm 1 m/s 743 mmHg 96%
    07:00 +9°C° 0.1 mm 1 m/s 744 mmHg 96%
    08:00 +9°C° 0.1 mm 1 m/s 744 mmHg 95%
    09:00 +10°C° 0.1 mm 1 m/s 744 mmHg 95%
    10:00 +10°C° 0.1 mm 1 m/s 744 mmHg 92%
    11:00 +11°C° 0.1 mm 1 m/s 744 mmHg 89%
    12:00 +12°C° 0.1 mm 1 m/s 744 mmHg 86%
    13:00 +12°C° 0 mm 1 m/s 743 mmHg 83%
    14:00 +13°C° 0 mm 1 m/s 743 mmHg 79%
    15:00 +13°C° 0 mm 1 m/s 743 mmHg 76%
    16:00 +12°C° 0 mm 1 m/s 743 mmHg 82%
    17:00 +11°C° 0 mm 1 m/s 742 mmHg 88%
    18:00 +10°C° 0 mm 1 m/s 742 mmHg 94%
    19:00 +9°C° 0 mm 1 m/s 743 mmHg 94%
    20:00 +9°C° 0 mm 1 m/s 743 mmHg 94%
    21:00 +9°C° 0 mm 1 m/s 743 mmHg 94%
    22:00 +8°C° 0 mm 1 m/s 743 mmHg 91%
    23:00 +8°C° 0 mm 1 m/s 743 mmHg 88%

    Mâine, 20 Februarie, Miercuri

    Timp Temperatura Precipitaţii Vânt Presiune Umiditate
    00:00 +7°C° 0 mm 2 m/s 743 mmHg 85%
    01:00 +7°C° 0 mm 2 m/s 743 mmHg 83%
    02:00 +7°C° 0 mm 2 m/s 743 mmHg 81%
    03:00 +7°C° 0 mm 2 m/s 743 mmHg 79%
    04:00 +7°C° 0 mm 2 m/s 743 mmHg 79%
    05:00 +7°C° 0 mm 2 m/s 743 mmHg 80%
    06:00 +7°C° 0 mm 2 m/s 743 mmHg 80%
    07:00 +8°C° 0 mm 2 m/s 744 mmHg 76%
    08:00 +9°C° 0 mm 2 m/s 744 mmHg 73%
    09:00 +10°C° 0 mm 2 m/s 744 mmHg 69%
    10:00 +13°C° 0 mm 2 m/s 744 mmHg 63%
    11:00 +15°C° 0 mm 2 m/s 745 mmHg 57%
    12:00 +17°C° 0 mm 2 m/s 745 mmHg 51%
    13:00 +17°C° 0 mm 2 m/s 745 mmHg 49%
    14:00 +18°C° 0 mm 2 m/s 744 mmHg 47%
    15:00 +19°C° 0 mm 2 m/s 744 mmHg 46%
    16:00 +18°C° 0 mm 1 m/s 744 mmHg 54%
    17:00 +15°C° 0 mm 1 m/s 744 mmHg 63%
    18:00 +13°C° 0 mm 1 m/s 745 mmHg 71%
    19:00 +12°C° 0 mm 1 m/s 745 mmHg 73%
    20:00 +11°C° 0 mm 1 m/s 745 mmHg 75%
    21:00 +10°C° 0 mm 2 m/s 746 mmHg 77%
    22:00 +9°C° 0 mm 2 m/s 746 mmHg 77%
    23:00 +9°C° 0 mm 2 m/s 746 mmHg 77%

    Poimâine, 21 Februarie, Joi

    Timp Temperatura Precipitaţii Vânt Presiune Umiditate
    00:00 +9°C° 0 mm 2 m/s 746 mmHg 76%
    01:00 +9°C° 0 mm 2 m/s 746 mmHg 76%
    02:00 +9°C° 0 mm 3 m/s 746 mmHg 76%
    03:00 +9°C° 0 mm 3 m/s 746 mmHg 76%
    04:00 +8°C° 0 mm 3 m/s 746 mmHg 75%
    05:00 +8°C° 0 mm 3 m/s 747 mmHg 75%
    06:00 +8°C° 0 mm 3 m/s 747 mmHg 75%
    07:00 +9°C° 0 mm 3 m/s 747 mmHg 71%
    08:00 +10°C° 0 mm 3 m/s 747 mmHg 68%
    09:00 +11°C° 0 mm 3 m/s 748 mmHg 64%
    10:00 +13°C° 0 mm 3 m/s 748 mmHg 58%
    11:00 +16°C° 0 mm 3 m/s 748 mmHg 52%
    12:00 +18°C° 0 mm 3 m/s 748 mmHg 45%
    13:00 +19°C° 0 mm 3 m/s 748 mmHg 44%
    14:00 +20°C° 0 mm 3 m/s 748 mmHg 42%
    15:00 +20°C° 0 mm 3 m/s 748 mmHg 40%
    16:00 +18°C° 0 mm 2 m/s 748 mmHg 48%
    17:00 +16°C° 0 mm 2 m/s 748 mmHg 57%
    18:00 +14°C° 0 mm 2 m/s 748 mmHg 65%
    19:00 +14°C° 0 mm 2 m/s 749 mmHg 67%
    20:00 +13°C° 0 mm 2 m/s 749 mmHg 69%
    21:00 +12°C° 0 mm 2 m/s 750 mmHg 71%
    22:00 +12°C° 0 mm 2 m/s 750 mmHg 71%
    23:00 +11°C° 0 mm 3 m/s 750 mmHg 71%

    22 Februarie, Vineri

    Timp Temperatura Precipitaţii Vânt Presiune Umiditate
    00:00 +10°C° 0 mm 3 m/s 750 mmHg 70%
    01:00 +10°C° 0 mm 3 m/s 750 mmHg 70%
    02:00 +10°C° 0 mm 3 m/s 750 mmHg 69%
    03:00 +10°C° 0 mm 3 m/s 750 mmHg 68%
    04:00 +9°C° 0 mm 3 m/s 750 mmHg 68%
    05:00 +9°C° 0 mm 3 m/s 750 mmHg 67%
    06:00 +9°C° 0 mm 2 m/s 750 mmHg 67%
    07:00 +10°C° 0 mm 2 m/s 750 mmHg 63%
    08:00 +12°C° 0 mm 2 m/s 751 mmHg 59%
    09:00 +13°C° 0 mm 2 m/s 751 mmHg 55%
    10:00 +16°C° 0 mm 2 m/s 751 mmHg 48%
    11:00 +18°C° 0 mm 2 m/s 751 mmHg 42%
    12:00 +20°C° 0 mm 2 m/s 750 mmHg 35%
    13:00 +22°C° 0 mm 1 m/s 750 mmHg 34%
    14:00 +22°C° 0 mm 1 m/s 750 mmHg 33%
    15:00 +23°C° 0 mm 1 m/s 749 mmHg 31%
    16:00 +20°C° 0 mm 1 m/s 749 mmHg 38%
    17:00 +18°C° 0 mm 1 m/s 748 mmHg 45%
    18:00 +15°C° 0 mm 1 m/s 748 mmHg 52%
    19:00 +14°C° 0 mm 2 m/s 748 mmHg 53%
    20:00 +13°C° 0 mm 2 m/s 748 mmHg 55%
    21:00 +13°C° 0 mm 2 m/s 748 mmHg 57%
    22:00 +12°C° 0 mm 2 m/s 748 mmHg 56%
    23:00 +12°C° 0 mm 2 m/s 748 mmHg 56%

    23 Februarie, Sâmbătă

    Timp Temperatura Precipitaţii Vânt Presiune Umiditate
    00:00 +12°C° 0 mm 2 m/s 748 mmHg 56%
    01:00 +10°C° 0 mm 2 m/s 748 mmHg 56%
    02:00 +10°C° 0 mm 2 m/s 748 mmHg 56%
    03:00 +10°C° 0 mm 2 m/s 748 mmHg 56%
    04:00 +9°C° 0 mm 2 m/s 748 mmHg 57%
    05:00 +9°C° 0 mm 2 m/s 748 mmHg 57%
    06:00 +9°C° 0 mm 2 m/s 748 mmHg 58%
    07:00 +10°C° 0 mm 2 m/s 748 mmHg 56%
    08:00 +12°C° 0 mm 2 m/s 749 mmHg 53%
    09:00 +13°C° 0 mm 2 m/s 749 mmHg 51%
    10:00 +16°C° 0 mm 2 m/s 749 mmHg 45%
    11:00 +20°C° 0 mm 1 m/s 749 mmHg 39%
    12:00 +22°C° 0 mm 1 m/s 749 mmHg 33%
    13:00 +22°C° 0 mm 1 m/s 749 mmHg 33%
    14:00 +23°C° 0 mm 1 m/s 749 mmHg 32%
    15:00 +23°C° 0 mm 1 m/s 748 mmHg 31%
    16:00 +20°C° 0 mm 1 m/s 748 mmHg 39%
    17:00 +16°C° 0 mm 0 m/s 749 mmHg 47%
    18:00 +13°C° 0 mm 0 m/s 749 mmHg 54%
    19:00 +12°C° 0 mm 0 m/s 749 mmHg 56%
    20:00 +13°C° 0 mm 1 m/s 749 mmHg 57%
    21:00 +12°C° 0 mm 1 m/s 750 mmHg 58%
    22:00 +12°C° 0 mm 1 m/s 750 mmHg 59%
    23:00 +11°C° 0 mm 1 m/s 750 mmHg 61%

    24 Februarie, Duminică

    Timp Temperatura Precipitaţii Vânt Presiune Umiditate
    00:00 +11°C° 0 mm 1 m/s 750 mmHg 62%
    01:00 +11°C° 0 mm 1 m/s 750 mmHg 62%
    02:00 +10°C° 0 mm 1 m/s 750 mmHg 62%
    03:00 +10°C° 0 mm 1 m/s 750 mmHg 62%
    04:00 +10°C° 0 mm 1 m/s 750 mmHg 62%
    05:00 +9°C° 0 mm 1 m/s 750 mmHg 61%
    06:00 +9°C° 0 mm 1 m/s 751 mmHg 61%
    07:00 +11°C° 0 mm 1 m/s 751 mmHg 57%
    08:00 +12°C° 0 mm 1 m/s 751 mmHg 54%
    09:00 +12°C° 0 mm 0 m/s 752 mmHg 50%
    10:00 +15°C° 0 mm 1 m/s 752 mmHg 46%
    11:00 +18°C° 0 mm 1 m/s 752 mmHg 42%
    12:00 +18°C° 0 mm 2 m/s 752 mmHg 38%
    13:00 +18°C° 0 mm 2 m/s 751 mmHg 39%
    14:00 +18°C° 0 mm 2 m/s 751 mmHg 40%
    15:00 +17°C° 0 mm 2 m/s 751 mmHg 42%
    16:00 +15°C° 0 mm 1 m/s 751 mmHg 52%
    17:00 +13°C° 0 mm 1 m/s 751 mmHg 62%
    18:00 +11°C° 0 mm 1 m/s 751 mmHg 71%
    19:00 +10°C° 0 mm 1 m/s 751 mmHg 73%
    20:00 +10°C° 0 mm 1 m/s 751 mmHg 75%
    21:00 +9°C° 0 mm 1 m/s 751 mmHg 76%
    22:00 +9°C° 0 mm 1 m/s 751 mmHg 76%
    23:00 +9°C° 0 mm 1 m/s 752 mmHg 75%
    Arată mai mult